Temperature
20 19 19 20 24 27 28 28 28 28 28 27 26 26 26 26 26 24 22 21 20 20 20 20 20 20 20 20 19 19 19 19 19 19 19 19 19 19 19 19 19 19 19 19 19 19 19 19 19
20 19 20 23 27 28 27 28 28 27 27 26 26 26 26 25 24 22 21 20 20 20 20 19 20 20 20 19 19 19 19 19 19 19 19 19 19 19 19 19 19 19 19 19 19 19 19 19 19
20 20 22 27 28 28 27 28 28 27 26 26 26 26 25 24 23 22 21 20 20 20 20 19 20 20 20 19 19 19 19 19 19 19 19 19 19 19 19 19 19 19 19 19 19 19 19 19 19
20 22 25 28 28 28 28 28 28 28 27 26 26 26 24 22 22 21 21 20 20 20 20 19 20 20 19 19 19 19 19 19 19 19 19 19 19 19 19 19 19 19 19 19 19 19 19 19 19
21 25 29 29 29 29 29 28 28 28 27 27 26 26 24 22 21 21 21 20 20 20 20 19 20 20 19 19 19 19 19 19 19 19 19 19 19 19 19 19 19 19 19 19 19 19 19 19 19
25 28 30 29 29 29 29 28 28 28 27 26 26 26 23 22 21 21 21 20 20 20 20 19 20 20 19 19 19 19 19 19 19 19 19 19 19 19 19 19 19 19 19 19 19 19 19 19 19
27 29 29 29 29 29 29 28 28 28 27 26 26 26 24 22 21 21 21 20 20 20 20 20 19 19 19 19 19 19 19 19 19 19 19 19 19 19 19 19 19 19 19 19 19 19 19 19 19
26 30 30 30 29 29 29 28 27 27 27 26 26 26 24 22 21 21 21 20 20 20 20 19 20 19 19 19 19 19 19 19 19 19 19 19 19 19 19 19 19 19 19 19 19 19 19 19 19
26 30 30 30 29 29 29 28 27 27 26 25 25 25 24 22 22 21 21 21 20 20 20 20 20 19 19 19 19 19 19 19 19 19 19 19 19 19 19 19 19 19 19 19 19 19 19 19 18
28 30 29 30 30 30 29 28 28 28 27 26 25 24 23 22 22 22 22 21 21 20 20 20 20 19 19 19 19 19 19 19 19 19 19 19 19 19 19 19 19 19 19 19 19 19 18 18 18
29 30 30 30 29 29 29 28 28 28 28 27 25 24 23 22 22 22 22 21 21 20 20 20 19 19 19 19 19 19 19 19 19 18 18 19 19 19 19 19 19 18 18 18 18 18 18 18 18
30 30 29 29 28 28 28 28 28 27 27 26 25 24 23 23 23 22 22 21 21 20 20 20 19 19 19 19 19 19 19 19 19 18 19 18 18 18 18 18 18 18 18 18 18 18 18 18 18
30 30 29 29 29 28 28 28 28 27 26 25 25 24 24 23 23 22 22 21 21 20 20 19 19 19 19 19 19 19 19 19 19 18 18 18 18 18 18 18 18 18 18 18 18 18 17 17 18
30 30 30 29 29 29 29 28 28 27 26 25 25 24 24 23 23 22 21 21 21 20 20 20 19 19 19 19 19 19 19 19 19 18 18 18 18 18 18 18 18 18 18 18 18 17 17 18 17
29 30 30 30 30 29 29 29 28 27 26 25 25 24 24 23 23 22 21 21 21 20 20 20 19 19 19 19 19 18 18 19 18 18 18 18 18 18 18 18 18 18 17 17 17 17 17 18 17
31 31 31 31 30 30 30 29 28 27 26 26 25 24 24 23 23 22 21 21 21 20 20 20 19 19 19 19 19 18 18 18 18 18 18 18 18 18 18 18 18 17 17 17 17 17 17 17 17
31 31 31 31 30 30 30 29 28 27 27 26 26 25 24 23 23 22 22 21 21 20 20 20 19 19 19 19 18 18 18 18 18 18 18 18 18 18 18 17 17 17 17 17 17 17 17 17 17
31 31 31 31 31 30 30 29 29 27 27 27 26 25 24 24 23 22 22 21 20 20 20 20 20 19 19 19 18 18 18 18 18 18 18 18 18 18 18 17 17 17 17 17 17 17 17 17 17
31 31 31 31 31 30 30 30 29 28 28 27 27 26 25 24 23 22 22 21 21 20 20 20 20 19 19 19 19 18 18 18 18 18 18 18 18 17 17 17 17 17 17 17 17 17 17 17 17
31 31 31 30 30 30 30 29 30 29 28 27 27 26 25 25 23 22 22 21 21 20 20 20 20 19 19 19 19 18 18 18 18 18 18 18 17 17 17 17 17 17 17 17 17 17 17 17 17
31 31 31 30 30 30 30 30 29 29 28 27 27 26 26 25 24 23 22 22 21 21 20 20 20 19 19 19 19 18 18 18 18 18 18 17 17 17 17 17 17 17 17 17 17 17 17 17 17
30 31 31 30 30 31 30 30 29 29 29 28 27 27 26 25 25 24 23 22 21 21 20 20 20 20 19 19 19 19 19 18 18 18 17 17 17 17 17 17 17 17 17 17 17 17 17 17 17
30 31 31 31 31 31 31 30 30 30 29 29 29 27 27 26 25 24 23 22 22 21 20 20 20 20 20 19 19 19 18 18 18 17 17 17 17 17 17 16 17 17 16 16 16 16 17 17 17
30 30 30 31 31 30 30 30 30 30 29 29 29 27 26 25 24 24 23 22 21 21 20 20 19 20 19 19 19 19 18 18 18 17 17 17 17 17 17 16 16 16 16 16 16 16 16 16 16
31 31 30 30 30 30 30 30 30 30 29 29 28 27 26 25 24 23 23 22 21 21 20 20 19 19 19 19 19 18 18 18 17 17 17 17 17 17 17 16 16 16 16 16 16 16 16 16 16
31 31 30 29 29 30 30 30 30 29 29 28 27 27 26 25 24 23 22 22 21 20 20 19 19 19 19 19 18 18 18 18 17 17 17 17 17 17 16 16 16 16 16 16 16 16 16 16 16
31 31 32 31 30 30 30 30 30 29 28 28 27 26 25 24 24 23 22 21 21 20 20 19 19 19 19 18 18 18 18 18 17 17 17 17 16 16 16 16 16 16 16 16 16 16 16 16 16
31 31 31 31 29 29 30 30 30 29 28 28 27 26 25 24 24 23 22 21 21 20 19 19 19 19 19 18 18 18 18 18 17 17 17 16 16 16 16 16 16 16 16 16 16 16 16 16 16
30 30 30 31 31 29 29 30 30 29 29 28 27 26 25 24 23 23 22 21 20 20 20 19 19 18 18 18 18 18 18 17 17 17 17 16 16 16 16 16 15 15 15 16 16 16 16 16 16
31 31 30 30 29 30 30 29 29 29 29 28 27 25 24 23 23 22 21 21 20 20 20 19 19 18 18 18 18 18 17 17 17 17 16 16 16 16 16 16 15 15 15 15 15 15 15 15 15
Wind_Speed
11 9 5 4 3 2 8 7 6 6 6 6 6 5 6 8 6 5 4 5 5 7 8 9 7 6 7 7 6 6 6 6 7 7 7 7 7 7 7 7 7 7 7 7 7 9 10 10 10
8 6 4 4 1 6 8 7 7 8 6 5 5 5 6 8 7 5 4 4 5 7 7 8 8 7 7 7 6 6 6 6 6 6 7 7 7 7 7 7 7 6 6 7 7 8 9 9 9
6 5 4 1 5 8 7 7 6 6 5 4 4 6 6 6 6 4 5 5 6 7 6 9 8 7 7 7 6 6 6 6 6 6 6 6 6 7 6 6 6 6 6 7 7 7 8 8 8
4 4 3 2 9 9 7 6 5 5 6 5 5 6 6 7 4 5 7 6 7 6 6 9 7 7 7 6 6 6 5 5 6 6 6 6 6 6 6 6 6 6 6 7 8 8 8 8 8
4 3 1 7 10 8 7 6 4 4 5 6 6 8 7 7 7 8 7 6 6 6 6 8 7 6 7 7 7 6 6 6 7 6 6 6 6 5 5 5 5 5 6 7 7 7 7 7 7
4 2 3 8 9 8 7 6 5 7 7 7 6 7 7 6 7 7 7 7 6 6 6 8 8 7 7 7 7 7 7 7 7 7 6 5 5 5 5 5 5 5 6 6 6 6 6 6 6
3 2 6 7 7 8 7 5 6 6 6 6 4 6 6 7 7 7 7 7 7 6 6 7 8 9 8 7 7 7 7 7 7 6 6 5 5 5 5 5 5 5 5 5 5 5 6 5 5
3 1 5 6 7 8 6 5 6 6 7 6 4 4 6 7 7 7 8 8 7 6 6 6 6 7 7 8 8 6 6 6 6 6 5 5 5 6 6 6 6 5 4 5 5 5 5 5 5
3 1 6 6 6 6 5 5 5 5 7 6 6 7 8 10 9 8 8 7 7 6 6 5 5 5 5 6 7 7 7 6 5 6 5 3 3 4 5 6 5 4 4 4 4 4 5 6 7
2 3 7 6 5 5 5 5 5 5 6 6 7 9 10 10 8 7 6 6 6 5 5 5 4 5 4 4 5 4 5 5 4 3 3 2 3 3 3 7 6 4 4 5 5 5 6 7 5
1 4 5 5 5 4 4 5 5 4 6 5 6 8 9 8 7 6 5 5 6 5 4 4 5 5 4 4 4 3 3 4 4 4 3 3 2 3 3 3 5 4 4 3 5 4 2 2 2
2 3 4 4 4 4 3 4 6 6 6 6 7 9 9 8 7 6 5 5 5 5 5 5 5 5 4 4 3 3 3 3 3 3 2 3 2 1 2 1 2 2 2 2 1 1 2 1 1
2 2 3 3 4 4 4 4 5 5 6 7 8 9 8 7 6 5 5 5 5 4 4 5 5 5 4 4 2 3 3 3 3 3 3 2 2 2 2 2 2 2 2 2 1 1 1 1 2
1 1 1 2 3 4 4 4 3 5 6 7 8 7 7 6 6 5 5 5 5 4 4 5 5 5 4 4 3 3 3 3 3 3 3 2 2 2 2 2 2 2 2 1 0 1 1 1 1
2 2 2 2 2 2 2 3 3 5 7 7 7 6 6 6 5 4 4 4 4 5 4 5 5 5 4 4 3 3 2 3 3 3 3 3 3 2 2 2 2 2 2 1 1 1 1 1 1
4 3 1 2 1 2 3 3 5 5 6 6 6 6 6 5 5 4 4 4 4 4 5 4 4 5 4 3 2 2 3 3 2 2 3 3 3 2 2 2 2 2 1 2 2 2 1 2 1
4 1 1 2 2 2 2 1 4 5 6 6 6 6 6 6 5 5 5 4 4 4 5 5 4 4 4 4 3 2 2 2 2 2 3 3 3 2 2 2 2 1 2 2 2 3 2 1 2
1 2 2 1 1 2 2 1 3 5 5 5 5 5 5 6 6 6 5 5 5 5 4 4 4 4 3 3 3 2 2 2 2 3 3 3 2 3 2 1 2 2 2 2 3 2 2 1 1
4 4 3 1 0 2 2 2 3 5 5 5 5 5 5 5 6 6 6 5 5 5 5 4 4 4 3 2 2 2 2 2 2 2 3 3 3 3 2 2 2 2 2 3 2 2 1 2 2
6 5 2 1 1 2 2 2 3 4 5 5 5 5 6 6 7 7 6 6 5 5 5 5 4 4 3 3 2 2 2 1 2 2 3 3 3 3 2 3 2 3 2 2 2 2 2 2 1
6 5 3 2 2 4 3 4 4 5 5 5 5 5 6 6 7 8 8 7 6 6 5 5 5 4 4 4 3 3 3 1 2 2 2 3 3 3 4 3 3 3 2 2 2 2 2 1 1
6 3 4 4 5 3 4 3 3 5 6 6 6 6 6 7 7 7 8 8 7 7 6 6 6 5 5 4 3 3 2 2 2 1 3 3 3 3 3 3 2 2 2 2 2 2 2 2 1
4 2 5 6 6 5 5 4 2 5 4 5 5 5 5 6 7 7 8 8 7 7 7 7 6 6 5 4 4 3 2 2 2 2 3 2 3 3 3 2 2 2 2 2 3 3 3 2 3
4 4 5 6 7 6 3 5 1 2 2 2 3 4 5 6 6 6 7 8 7 7 7 7 7 6 5 5 4 4 3 2 2 2 2 1 2 2 2 2 2 2 2 2 2 2 2 3 3
8 7 5 5 5 3 2 4 1 2 1 1 2 3 4 5 6 7 8 8 8 8 8 7 7 7 6 5 4 4 4 3 3 1 2 1 1 1 2 2 2 2 2 2 3 2 3 2 2
9 9 7 5 5 2 3 3 1 2 2 2 2 3 4 5 6 6 7 8 8 8 8 8 8 7 7 6 5 4 4 2 2 1 0 0 1 1 2 2 2 2 3 2 2 2 2 2 2
8 10 9 8 8 6 3 2 3 4 3 3 3 4 4 4 5 6 7 7 8 8 8 8 8 7 6 6 5 4 3 2 2 2 1 0 0 0 1 1 2 2 2 2 2 2 2 2 2
7 7 7 8 6 7 5 5 3 4 4 4 4 4 4 5 5 5 6 7 7 7 8 8 7 7 6 6 5 4 4 3 2 1 1 1 1 1 1 2 2 2 2 2 2 2 2 2 2
7 8 7 8 8 8 6 2 2 3 3 4 4 4 5 5 6 6 6 7 6 7 7 8 7 7 6 6 5 4 4 3 3 2 1 0 0 0 1 1 2 2 2 2 2 2 2 2 2
8 9 10 8 8 8 8 1 4 3 3 4 4 5 5 5 5 6 6 6 6 6 6 6 7 7 6 5 5 5 4 3 3 2 1 1 1 1 0 1 2 2 2 2 2 3 2 2 2
Wind_Direction
177 180 198 226 231 91 60 50 46 49 48 44 43 42 43 35 24 51 67 88 100 115 121 124 116 115 116 118 119 121 119 121 126 132 140 145 145 146 147 146 149 151 154 153 148 149 151 157 158
171 178 221 239 334 73 64 50 53 52 61 56 51 49 57 54 46 73 90 93 106 109 117 116 114 116 116 118 120 118 119 121 125 131 137 140 140 143 146 148 147 149 149 147 145 146 152 153 158
175 217 259 273 50 56 61 55 64 69 62 54 61 51 44 49 57 71 92 111 108 102 110 110 115 115 113 114 117 117 121 127 133 134 135 137 137 139 145 147 147 150 148 145 148 153 154 155 161
206 229 234 75 66 55 54 52 67 79 70 63 69 74 69 48 54 86 104 112 109 111 112 110 115 115 114 113 114 114 120 128 134 134 133 135 137 139 140 148 151 155 156 156 156 157 157 160 164
240 258 147 78 67 60 54 48 50 64 62 69 71 81 75 62 77 94 105 107 104 102 103 113 117 116 113 113 110 104 109 121 129 129 128 131 136 138 140 146 149 151 153 150 151 154 156 158 160
256 257 61 65 65 65 62 53 60 70 78 75 78 83 80 88 93 97 102 102 100 97 95 102 115 118 114 113 112 111 107 114 121 124 123 125 126 131 134 132 136 138 140 142 147 154 155 159 167
299 13 55 61 65 67 57 52 58 70 73 68 77 86 97 96 97 103 102 101 97 95 91 98 117 127 131 124 115 112 111 110 112 115 117 118 122 126 129 131 134 140 145 149 154 156 157 164 169
297 326 66 61 59 61 65 70 63 64 73 77 70 83 103 117 116 111 106 103 98 93 89 91 106 114 126 128 125 118 113 109 107 108 108 120 145 149 148 149 134 138 145 153 159 166 174 177 178
272 28 57 46 47 59 67 76 80 82 92 85 71 76 101 124 124 117 111 105 96 87 84 86 97 107 112 114 121 137 134 127 133 129 124 154 133 127 144 117 127 142 146 150 160 172 181 191 189
301 43 49 37 37 55 61 60 83 104 95 92 92 94 111 127 130 122 114 110 100 90 86 88 92 98 100 102 113 127 125 118 113 96 102 102 93 113 121 125 141 149 153 162 169 187 201 211 190
33 42 45 49 48 55 74 73 78 86 79 85 110 120 127 131 129 121 108 99 95 94 86 89 94 95 96 99 105 107 113 113 116 108 105 95 102 120 120 131 146 152 165 154 158 185 181 179 179
87 57 48 54 55 65 77 87 81 62 62 87 113 125 131 135 132 125 115 104 99 90 87 87 93 93 87 87 99 112 113 111 103 97 75 88 88 79 83 109 106 122 123 139 159 154 132 152 190
114 74 64 70 82 80 91 86 83 80 88 103 115 124 130 129 123 116 111 107 100 97 94 98 100 101 106 108 96 96 94 98 104 99 85 71 80 75 76 88 93 99 114 136 151 137 137 186 193
72 114 116 110 106 111 98 90 102 103 119 120 125 128 130 128 123 117 117 113 109 106 101 101 109 111 110 113 108 97 101 102 94 89 75 67 74 69 62 92 81 74 65 36 30 137 177 181 148
206 189 153 136 144 143 144 100 106 130 140 137 138 136 135 136 129 121 122 123 123 117 109 110 115 113 110 110 114 105 99 91 80 84 83 71 67 60 45 60 71 61 55 52 51 52 68 105 129
214 225 164 130 173 191 237 92 108 144 157 153 152 148 149 147 143 137 132 132 127 122 117 116 116 115 117 109 95 85 78 81 78 83 81 69 64 52 29 42 56 50 38 34 33 20 40 64 70
213 266 21 134 162 203 229 101 120 153 166 160 158 155 159 157 157 152 148 147 139 132 126 125 120 122 124 123 118 100 89 79 80 79 70 66 66 54 35 34 38 24 20 19 15 38 28 58 59
301 311 318 331 132 203 218 176 151 165 177 171 167 165 169 172 168 163 159 155 152 144 138 136 136 131 136 138 134 116 89 86 80 74 57 42 52 47 27 53 37 12 25 22 28 29 38 43 51
290 291 298 337 143 224 229 232 194 177 187 188 182 175 181 183 173 167 164 159 155 155 152 152 151 148 155 154 151 132 105 84 82 82 65 48 37 39 30 29 38 15 30 19 19 20 59 59 51
259 270 266 186 170 240 249 249 202 191 200 204 198 193 193 188 175 171 172 167 164 160 158 156 158 153 160 144 138 124 100 84 74 60 64 46 41 33 46 30 15 31 35 29 18 9 10 31 30
246 261 271 266 214 211 243 222 189 187 194 198 206 202 197 193 185 178 175 173 173 168 167 160 157 154 155 151 148 135 136 133 98 75 67 46 44 44 42 38 24 23 16 35 11 354 11 15 21
246 252 251 238 239 243 252 271 173 182 189 194 203 206 203 194 189 184 177 175 175 172 165 163 159 155 155 158 151 145 130 104 76 67 65 58 56 51 57 50 31 9 10 21 346 18 339 318 340
258 233 237 243 254 260 244 273 168 180 201 199 204 206 203 195 187 185 181 174 172 169 164 160 156 152 152 151 151 162 146 125 106 91 83 59 63 53 46 38 28 10 1 3 350 353 333 322 324
192 201 212 229 244 251 249 265 226 167 213 203 197 199 197 187 182 182 176 170 171 167 164 160 155 152 154 157 153 154 141 130 112 102 94 85 78 60 42 29 15 356 355 354 337 333 337 334 333
219 234 236 231 231 246 169 254 262 83 195 215 199 183 181 175 176 176 172 171 172 170 168 164 157 157 157 155 153 150 150 157 155 158 119 55 49 53 34 7 358 348 346 338 334 337 334 334 321
225 245 258 272 272 247 194 252 104 109 138 159 165 150 159 164 168 172 169 169 170 168 169 166 160 158 158 159 155 150 164 180 156 144 154 123 2 27 16 351 344 337 329 329 331 320 319 324 314
230 239 263 270 271 270 227 201 171 153 151 151 150 144 147 151 158 163 162 165 165 166 166 167 161 160 161 160 158 153 162 162 128 143 200 197 347 296 337 309 310 320 328 326 315 327 320 320 306
255 253 245 251 260 263 234 223 198 172 175 167 162 151 141 147 148 147 148 152 159 162 159 163 162 162 165 166 167 153 160 161 161 165 110 354 329 337 301 291 306 314 319 314 306 300 322 312 307
208 223 239 253 260 267 265 231 111 167 176 173 163 152 143 148 148 143 144 147 148 153 157 160 162 163 165 163 155 148 153 157 162 160 173 180 288 316 313 303 298 300 310 312 303 298 309 306 308
234 231 230 243 249 256 270 255 98 123 154 159 151 141 139 142 137 135 139 145 149 151 152 156 162 163 161 156 154 152 150 156 166 162 176 173 185 242 345 337 315 301 312 318 305 301 312 306 306
Height
1496 1496 1497 1499 1494 1488 1489 1485 1482 1483 1484 1486 1487 1486 1486 1487 1489 1497 1498 1496 1496 1496 1496 1495 1496 1496 1497 1497 1498 1498 1498 1498 1499 1501 1502 1504 1505 1506 1507 1508 1509 1510 1510 1510 1508 1507 1511 1515 1518
1498 1497 1499 1497 1488 1492 1493 1486 1485 1486 1488 1489 1489 1488 1488 1491 1494 1497 1497 1496 1497 1497 1497 1496 1496 1497 1497 1498 1498 1499 1499 1500 1501 1502 1504 1505 1506 1507 1508 1509 1510 1510 1511 1511 1512 1512 1514 1516 1518
1498 1498 1499 1490 1487 1491 1492 1486 1486 1488 1490 1489 1490 1491 1492 1495 1497 1498 1498 1498 1498 1497 1497 1497 1497 1497 1498 1499 1499 1499 1500 1500 1501 1503 1504 1506 1507 1508 1509 1510 1510 1511 1512 1513 1513 1514 1516 1517 1519
1500 1500 1496 1488 1489 1487 1487 1487 1487 1488 1490 1490 1490 1492 1496 1499 1500 1500 1499 1499 1499 1499 1499 1497 1497 1498 1498 1499 1500 1500 1500 1500 1502 1504 1505 1507 1508 1509 1510 1511 1511 1512 1513 1514 1515 1516 1517 1518 1520
1500 1497 1488 1487 1488 1487 1487 1488 1488 1487 1490 1491 1492 1494 1498 1501 1501 1501 1500 1501 1500 1500 1499 1497 1497 1498 1499 1500 1500 1500 1500 1500 1502 1505 1506 1508 1509 1510 1510 1511 1512 1513 1514 1515 1515 1517 1518 1519 1520
1499 1491 1487 1491 1489 1488 1488 1490 1489 1490 1492 1493 1494 1496 1501 1503 1503 1503 1502 1502 1502 1500 1499 1497 1495 1498 1500 1501 1502 1502 1501 1502 1504 1506 1507 1509 1509 1510 1511 1512 1512 1513 1514 1515 1516 1517 1518 1519 1520
1498 1488 1488 1488 1490 1489 1491 1492 1491 1491 1493 1495 1496 1497 1501 1504 1504 1504 1504 1503 1503 1502 1500 1499 1498 1499 1501 1502 1503 1504 1505 1505 1506 1508 1509 1510 1510 1511 1512 1512 1513 1513 1514 1515 1516 1517 1517 1518 1519
1498 1490 1488 1488 1490 1491 1492 1493 1494 1494 1495 1498 1498 1498 1501 1505 1505 1505 1505 1505 1504 1503 1502 1501 1502 1503 1504 1505 1505 1506 1506 1507 1508 1509 1510 1511 1511 1512 1512 1513 1513 1513 1514 1515 1515 1516 1517 1518 1519
1498 1491 1491 1490 1490 1491 1492 1493 1496 1497 1498 1500 1500 1501 1503 1505 1506 1506 1507 1506 1506 1505 1505 1504 1505 1506 1507 1507 1507 1508 1508 1509 1510 1511 1511 1512 1513 1513 1513 1513 1513 1514 1514 1514 1515 1516 1516 1517 1517
1496 1491 1492 1491 1490 1491 1493 1494 1496 1496 1498 1500 1502 1504 1505 1506 1507 1507 1507 1507 1507 1507 1507 1506 1507 1507 1508 1509 1509 1510 1511 1511 1511 1512 1513 1513 1513 1513 1513 1512 1513 1513 1514 1514 1514 1515 1515 1516 1517
1495 1493 1492 1493 1494 1494 1494 1495 1497 1496 1497 1501 1503 1505 1506 1507 1508 1509 1509 1509 1509 1509 1508 1508 1508 1508 1510 1510 1511 1512 1512 1512 1513 1514 1514 1514 1514 1514 1514 1513 1513 1513 1513 1514 1514 1514 1515 1515 1516
1495 1494 1494 1495 1495 1495 1495 1496 1498 1499 1501 1503 1504 1506 1507 1508 1509 1510 1510 1511 1510 1510 1509 1509 1509 1510 1510 1511 1513 1513 1514 1514 1515 1515 1515 1515 1514 1514 1513 1512 1513 1513 1513 1512 1513 1513 1513 1513 1514
1494 1495 1496 1496 1496 1497 1497 1498 1499 1502 1504 1505 1506 1507 1509 1510 1511 1511 1512 1512 1512 1512 1511 1511 1510 1511 1511 1512 1514 1515 1515 1515 1516 1516 1516 1515 1515 1514 1513 1511 1512 1512 1512 1512 1512 1512 1512 1512 1513
1495 1495 1495 1495 1496 1497 1497 1498 1500 1503 1505 1506 1507 1508 1510 1511 1512 1512 1513 1513 1513 1513 1513 1513 1512 1512 1513 1514 1515 1516 1516 1516 1517 1517 1517 1516 1516 1514 1513 1512 1512 1512 1512 1512 1511 1511 1510 1511 1512
1496 1494 1493 1494 1495 1496 1497 1498 1500 1503 1505 1506 1508 1509 1511 1512 1513 1513 1514 1514 1514 1514 1515 1514 1515 1515 1515 1516 1517 1518 1518 1518 1518 1518 1518 1517 1517 1515 1514 1514 1513 1512 1512 1511 1511 1510 1509 1509 1511
1492 1490 1493 1492 1493 1495 1496 1500 1499 1502 1504 1505 1507 1509 1511 1512 1513 1514 1514 1515 1515 1515 1515 1516 1517 1517 1517 1517 1518 1519 1520 1520 1519 1519 1519 1518 1518 1517 1516 1515 1514 1513 1512 1511 1510 1509 1509 1509 1510
1489 1492 1493 1491 1491 1493 1493 1496 1499 1502 1503 1504 1506 1508 1510 1512 1513 1514 1515 1515 1516 1516 1516 1516 1517 1518 1518 1518 1519 1520 1520 1520 1521 1521 1520 1520 1519 1518 1517 1516 1514 1513 1512 1511 1511 1509 1509 1510 1510
1494 1492 1492 1492 1489 1492 1492 1494 1496 1500 1501 1503 1505 1507 1509 1511 1512 1514 1515 1515 1516 1516 1517 1517 1518 1518 1519 1520 1520 1521 1521 1522 1522 1521 1521 1520 1520 1519 1518 1517 1516 1515 1514 1512 1511 1510 1510 1510 1511
1489 1491 1492 1490 1489 1490 1492 1493 1494 1497 1500 1501 1502 1505 1507 1510 1512 1513 1515 1515 1516 1517 1517 1517 1518 1519 1519 1520 1522 1522 1523 1523 1523 1522 1521 1521 1520 1519 1519 1518 1517 1516 1515 1514 1513 1512 1512 1512 1512
1489 1491 1490 1489 1489 1490 1491 1491 1491 1495 1498 1499 1501 1504 1506 1508 1510 1512 1514 1515 1516 1516 1517 1517 1518 1519 1520 1521 1521 1522 1523 1523 1523 1523 1522 1522 1521 1520 1519 1518 1518 1517 1515 1514 1513 1513 1513 1513 1513
1488 1489 1489 1490 1489 1488 1491 1492 1491 1492 1496 1499 1500 1502 1504 1506 1508 1510 1512 1514 1515 1516 1516 1518 1518 1519 1520 1521 1522 1523 1523 1524 1524 1523 1523 1522 1521 1520 1519 1519 1518 1517 1517 1516 1515 1514 1514 1514 1514
1490 1485 1486 1488 1490 1489 1490 1498 1490 1489 1492 1495 1497 1499 1501 1504 1506 1508 1510 1512 1513 1515 1516 1517 1518 1519 1520 1520 1522 1523 1523 1524 1524 1524 1523 1523 1522 1521 1521 1520 1519 1518 1518 1517 1516 1516 1515 1515 1516
1486 1483 1484 1485 1487 1489 1487 1492 1489 1486 1490 1490 1493 1496 1499 1502 1504 1506 1508 1510 1512 1514 1516 1517 1517 1518 1519 1520 1521 1522 1523 1524 1524 1524 1523 1523 1523 1522 1522 1521 1520 1519 1519 1518 1517 1516 1516 1516 1516
1483 1485 1485 1484 1483 1497 1490 1493 1493 1484 1487 1488 1491 1494 1497 1500 1502 1505 1507 1509 1511 1513 1515 1516 1517 1518 1519 1520 1521 1521 1522 1523 1524 1524 1524 1524 1524 1523 1522 1521 1520 1520 1519 1518 1517 1516 1516 1515 1515
1483 1487 1496 1500 1498 1495 1485 1490 1490 1483 1484 1487 1490 1493 1496 1499 1501 1503 1506 1508 1510 1511 1513 1515 1516 1517 1518 1519 1520 1521 1522 1523 1523 1524 1524 1525 1525 1524 1522 1522 1520 1520 1519 1518 1517 1516 1516 1515 1514
1479 1481 1497 1507 1503 1492 1487 1490 1484 1482 1485 1488 1490 1493 1495 1497 1499 1502 1504 1506 1508 1510 1512 1514 1515 1516 1517 1519 1520 1520 1521 1523 1524 1523 1524 1524 1524 1523 1522 1521 1520 1519 1519 1518 1517 1516 1515 1514 1514
1479 1479 1473 1482 1486 1492 1486 1484 1481 1482 1484 1487 1490 1492 1494 1496 1498 1501 1503 1505 1507 1509 1510 1512 1513 1515 1516 1518 1519 1520 1521 1522 1522 1522 1523 1523 1522 1522 1521 1520 1519 1519 1518 1517 1516 1515 1514 1514 1513
1475 1473 1478 1483 1500 1502 1491 1486 1483 1482 1483 1485 1488 1491 1494 1496 1498 1500 1502 1504 1506 1508 1509 1511 1512 1513 1515 1517 1518 1519 1520 1520 1521 1522 1522 1521 1521 1520 1520 1519 1518 1518 1517 1516 1515 1514 1513 1513 1512
1479 1479 1478 1478 1480 1494 1498 1489 1473 1478 1480 1483 1486 1490 1493 1495 1497 1499 1502 1503 1505 1507 1509 1510 1511 1512 1514 1516 1517 1518 1519 1520 1520 1521 1521 1521 1520 1519 1518 1518 1517 1517 1516 1515 1514 1513 1512 1511 1511
1471 1472 1475 1485 1487 1482 1486 1487 1473 1476 1479 1483 1486 1490 1493 1495 1497 1499 1501 1503 1505 1506 1508 1509 1510 1512 1513 1514 1515 1516 1517 1518 1519 1520 1520 1519 1519 1518 1517 1517 1516 1515 1514 1513 1512 1512 1511 1510 1510